Regional Weather Roundup
Issued by NWS

Home | Current Version | Previous Version | Graphics & Text | Print | Product List | Glossary On
Versions: 1 2 3 4 5 6 7 8 9 10 11 12 13 14 15 16 17 18 19 20 21 22 23 24 25 26 27 28 29 30 31 32 33 34 35 36 37 38 39 40 41 42 43 44 45 46 47 48 49 50
000
ASUS45 KSLC 030010
RWRUT
UTAH REGIONAL WEATHER ROUNDUP
NATIONAL WEATHER SERVICE SALT LAKE CITY UT
600 PM MDT SUN AUG 02 2015

UTZ001>011-023>025-030100-

NORTHERN UTAH

CITY           SKY/WX    TMP DP  RH WIND       PRES   REMARKS
BRIGHAM CITY   MOSUNNY   91  37  15 S28G37    29.93S
HILL AFB       CLOUDY    83  46  27 S13       30.00F
LOGAN          SUNNY     97  30   9 N8        29.91F HX  91
OGDEN          CLOUDY    85  47  26 S15       29.96F
PROVO AIRPORT  NOT AVBL
SALT LAKE CITY CLOUDY    83  47  28 S21G29    29.96R
VERNAL         CLOUDY    78  45  30 NW8       30.05F
WENDOVER       PTSUNNY   95  30  10 SE15      29.93F
HEBER CITY     CLOUDY    75  43  31 S15G25    30.08F
WEST JORDAN    MOSUNNY   81  48  32 S13       30.03F

$$

UTZ012>022-026-027-030100-

SOUTHERN/CENTRAL UTAH

CITY           SKY/WX    TMP DP  RH WIND       PRES   REMARKS
BLANDING       CLOUDY    69  61  76 S3        30.19F
BRYCE CANYON   TSTM      58  51  78 N12       30.28R
CEDAR CITY     CLOUDY    81  41  24 NW5       30.09F
HANKSVILLE     CLOUDY    70  61  73 NW3       30.08F
MILFORD        CLOUDY    81  46  29 E15G24    30.04S
MOAB/CYNLANDS  CLOUDY    74  58  57 NW20      30.03S
PRICE          CLOUDY    74  54  49 S8        30.13F
ST GEORGE      CLOUDY    97  52  21 S3        29.89F HX  94

$$

REGIONAL REPORTS     COLORADO/ARIZONA

CITY           SKY/WX    TMP DP  RH WIND       PRES   REMARKS
CRAIG, CO      CLOUDY    84  46  26 SW9       30.07F
GRAND JUNCTION CLOUDY    78  53  41 SE6       30.05S
RIFLE          CLOUDY    78  51  38 NE14G21   30.09R
MONTROSE       RAIN      66  60  81 SE8       30.18R
CORTEZ         CLOUDY    71  58  63 CALM      30.12F
PAGE, AZ       CLOUDY    79  62  56 NE6       30.01F
GRAND CANYON   CLOUDY    72  55  55 VRB6      30.19F
KINGMAN        SUNNY     95  44  17 MISG      29.93F HX  91
FLAGSTAFF      TSTM      67  58  72 E5        30.23F

$$

REGIONAL REPORTS    NEVADA/IDAHO/WYOMING

CITY           SKY/WX    TMP DP  RH WIND       PRES   REMARKS
LAS VEGAS, NV  MOSUNNY  102  47  15 VRB5G16   29.76F HX  98
ELY            CLOUDY    75  41  29 SE23G29   30.15R
ELKO           CLOUDY    91  35  13 W8        29.98F
POCATELLO, ID  MOSUNNY   92  41  17 NW7       29.94F
BURLEY         PTSUNNY   94  37  13 VRB5      29.90F
EVANSTON, WY   PTSUNNY   78  39  24 SW21G31   30.16S
ROCK SPRINGS   PTSUNNY   85  26  11 SE8       30.11F
KEMMERER       MOSUNNY  N/A N/A N/A E6        30.17S

$$



USA.gov is the U.S. government's official web portal to all federal, state and local government web resources and services.